Flag for Micronesia Weather past 2 weeks in Kolonia, Ponape, Micronesia

Now
83 °F

Mostly cloudy.


Feels Like: 91 °F
Forecast: 78 / 88 °F
Wind: 7 mph from Northeast

Location: Pohnpei

Current Time: Dec 22, 2014 at 3:12:38 AM

Latest Report: Dec 22, 2014 at 1:50 AM


Visibility: 15 mi

Pressure: 29.76 "Hg

Humidity: 83%

Dew point: 77 °F

Location of KoloniaLocation

Historic Weather in Kolonia — Graph

°F

Kolonia temperature yesterday

Maximum temperature yesterday: 85 °F (at 1:51 PM)
Minimum temperature yesterday: 78 °F (at 2:53 AM)
Average temperature yesterday: 82 °F

Past Weeks' High & Low Weather Summary

 TemperatureHumidityPressure
High88 °F (Dec 7, 9:50 AM)98% (Dec 14, 12:52 AM)29.91 "Hg (Dec 14, 12:52 AM)
Low76 °F (Dec 8, 3:52 AM)63% (Dec 18, 4:53 PM)29.74 "Hg (Dec 21, 3:53 PM)
Average82 °F84%29.84 "Hg
* Reported Dec 7 1:55 AM — Dec 22 1:50 AM, Kolonia, Weather by CustomWeather, © 2014

Note: Actual official high and low records may vary slightly from our data, if they occured in-between our weather recording intervals... More about our weather records

Advertising

Kolonia weather history for previous 24 hours

 ConditionsComfort  
Time TempWeatherWind HumidityBarometerVisibility
1:50 AM
Dec 22
83 °FMostly cloudy.7 mph83%29.76 "Hg15 mi
12:50 AM83 °FMostly cloudy.5 mph85%29.79 "Hg14 mi
10:52 PM
Dec 21
82 °FMostly cloudy.9 mph84%29.80 "Hg15 mi
9:52 PM83 °FMostly cloudy.8 mph82%29.82 "Hg15 mi
8:51 PM83 °FMostly cloudy.10 mph84%29.80 "Hg15 mi
7:52 PM83 °FMostly cloudy.6 mph84%29.78 "Hg15 mi
6:56 PM83 °FMostly cloudy.9 mph81%29.77 "Hg15 mi
5:53 PM83 °FMostly cloudy.14 mph80%29.75 "Hg15 mi
4:57 PM84 °FMostly cloudy.10 mph73%29.75 "Hg15 mi
3:53 PM84 °FMore clouds than sun.12 mph77%29.74 "Hg15 mi
2:54 PM85 °FMostly cloudy.9 mph74%29.75 "Hg15 mi
1:51 PM85 °FMostly cloudy.12 mph77%29.77 "Hg15 mi
12:51 PM84 °FMostly cloudy.10 mph80%29.80 "Hg15 mi
11:53 AM84 °FCloudy.7 mph77%29.83 "Hg15 mi
10:51 AM84 °FMostly cloudy.12 mph73%29.84 "Hg15 mi
9:50 AM84 °FMostly cloudy.14 mph77%29.85 "Hg15 mi
8:52 AM80 °FMostly cloudy.9 mph86%29.84 "Hg15 mi
7:53 AM80 °FSprinkles. Mostly cloudy.9 mph92%29.82 "Hg12 mi
6:54 AM81 °FMostly cloudy.12 mph88%29.80 "Hg15 mi
5:52 AM81 °FMostly cloudy.14 mph87%29.78 "Hg15 mi
4:53 AM78 °FSprinkles. Mostly cloudy.7 mph94%29.78 "Hg10 mi
3:50 AM79 °FMostly cloudy.6 mph91%29.77 "Hg15 mi
Weather by CustomWeather, © 2014

See weather overviewHow to use our weather pages